Other Public Products
Issued by NWS Grand Forks, ND

Home | Current Version | Previous Version | Text Only | Print | Product List | Glossary On
Versions: 1 2 3 4 5 6 7 8 9 10 11 12 13 14 15 16 17 18 19 20 21 22 23 24 25 26 27 28 29 30 31 32 33 34 35 36 37 38 39 40 41 42 43 44 45 46 47 48 49 50
000
FPUS83 KFGF 201831
OPUFGF
PRAIRIE TO PINES WEATHER ROUNDUP
NATIONAL WEATHER SERVICE EASTERN NORTH DAKOTA/GRAND FORKS ND
100 PM CDT MON OCT 20 2014

 **SATELLITE DATA USED TO AUGMENT SKY COVER AT AUTOMATED STATIONS**
 *****  WEATHER ACROSS EASTERN NORTH DAKOTA  *****

CITY           SKY/WX    TMP DP  RH WIND       PRES   REMARKS
GRAND FORKS    MOSUNNY   54  42  64 E3        30.06F
6HR MIN TEMP:  32; 6HR MAX TEMP:  54;

GRAND FORKS AF SUNNY     54  44  69 N3        30.07F
GRAND CITY NWS   N/A     54 N/A N/A NE2         N/A
BUXTON           N/A     60  44  55 CALM        N/A
DEVILS LAKE    SUNNY     57  43  58 SE9       30.02F
6HR MIN TEMP:  30; 6HR MAX TEMP:  55;

FARGO          SUNNY     59  43  55 N6        30.06F
6HR MIN TEMP:  35; 6HR MAX TEMP:  59;

WAHPETON ARPT  CLEAR     61  39  44 N7        30.05F
$$

 *****  WEATHER ACROSS CENTRAL AND WESTERN NORTH DAKOTA  *****

CITY           SKY/WX    TMP DP  RH WIND       PRES   REMARKS
JAMESTOWN      SUNNY     63  39  41 SE5       30.05F
6HR MIN TEMP:  36; 6HR MAX TEMP:  63;

BISMARCK       SUNNY     68  42  38 SE9       30.04F
6HR MIN TEMP:  30; 6HR MAX TEMP:  68;

MINOT          SUNNY     68  36  30 S14G22    29.97F
6HR MIN TEMP:  35; 6HR MAX TEMP:  68;

MINOT AFB      SUNNY     68  36  30 S20       29.96F
6HR MIN TEMP:  34; 6HR MAX TEMP:  68;

GARRISON         N/A     65  42  43 S10       30.00F
6HR MIN TEMP:  32; 6HR MAX TEMP:  65;

WILLISTON      SUNNY     69  40  34 S12       29.91F
6HR MIN TEMP:  34; 6HR MAX TEMP:  69;

DICKINSON      SUNNY     68  41  37 S20G29    29.96F
6HR MIN TEMP:  39; 6HR MAX TEMP:  68;

HETTINGER      SUNNY     68  39  34 SE17G24   30.01F
6HR MIN TEMP:  41; 6HR MAX TEMP:  68;

$$

 *****  OTHER OBSERVATIONS NORTHEAST NORTH DAKOTA  *****

CITY           SKY/WX    TMP DP  RH WIND       PRES   REMARKS
WALHALLA         N/A     46  46 100 SE7       30.07F
LANGDON        FAIR      63  41  45 S6        30.03F
CAVALIER       FAIR      50  41  71 CALM      30.07F
GRAFTON        FAIR      52  41  66 NE6       30.07F
CANDO          FAIR      59  45  58 SE9       30.03F
FORT TOTTEN      N/A     63  44  49 SE7       29.95S
ROLLA          FAIR      61  39  44 S12       30.02F
RUGBY          FAIR      63  43  48 SE9       30.01F
 ***** THE ABOVE OBSERVATIONS ARE NON NWS ARE NOT QUALITY
        CONTROLLED AND MAY MIS-REPORT RAIN FOR SNOW...
$$

 *****  OTHER OBSERVATIONS SOUTHEAST NORTH DAKOTA *****

CITY           SKY/WX    TMP DP  RH WIND       PRES   REMARKS
COOPERSTOWN    NOT AVBL
VALLEY CITY    FAIR      59  43  55 S3        30.06F
OAKES            N/A     64  41  42 E3        30.06F
GWINNER        CLEAR     63  43  48 S5        30.07F
SHEYENNE NWR     N/A     63  44  49 CALM      29.95S
BUFFALO          N/A     63  38  38 E2          N/A
WYNDMERE         N/A     63  43  48 NW3         N/A
 ***** THE ABOVE OBSERVATIONS ARE NON NWS ARE NOT QUALITY
       CONTROLLED AND MAY MIS-REPORT RAIN FOR SNOW...
$$

  *****  WEATHER ACROSS NORTHERN MINNESOTA  *****

CITY           SKY/WX    TMP DP  RH WIND       PRES   REMARKS
FLAG ISLAND    CLOUDY    45  36  70 CALM      30.06S
WARROAD        CLOUDY    46  39  76 CALM      30.07F
ROSEAU         CLOUDY    46  39  76 N3        30.07F
HALLOCK        MOSUNNY   48  43  81 CALM      30.07F
THF RVR FALLS  PTSUNNY   48  41  76 N5        30.07F
6HR MIN TEMP:  36; 6HR MAX TEMP:  46;

HALSTAD          N/A     59  39  47 NE5         N/A
FOSSTON        SUNNY     54  39  58 N12       30.06F
BAUDETTE       CLOUDY    48  37  65 NW8       30.06S
6HR MIN TEMP:  41; 6HR MAX TEMP:  48;

WASKISH        CLOUDY    46  43  87 CALM      30.05S
CROOKSTON      SUNNY     54  43  66 N7        30.07F
$$
  *****  WEATHER ACROSS CENTRAL AND WEST MINNESOTA  *****

CITY           SKY/WX    TMP DP  RH WIND       PRES   REMARKS
BEMIDJI        MOSUNNY   51  39  65 N6        30.04F
PARK RAPIDS    SUNNY     54  38  54 N14       30.03F
6HR MIN TEMP:  33; 6HR MAX TEMP:  54;

WADENA         SUNNY     57  43  58 NW7       30.02F
DETROIT LAKES  SUNNY     55  41  58 NW7       30.06F
MOORHEAD       SUNNY     57  45  62 N3        30.06F
FERGUS FALLS   SUNNY     61  39  44 NW10      30.05F
ELBOW LAKE     FAIR      59  42  52 NW10      30.04F
6HR MIN TEMP:  34; 6HR MAX TEMP:  58;

MORRIS MN      SUNNY     63  43  48 NW14      30.03F
STAPLES        SUNNY     57  39  51 NW10      30.02F
WHEATON        SUNNY     61  41  48 N6        30.06F
$$
  *****  WEATHER ELSEWHERE ACROSS MINNESOTA  *****

CITY           SKY/WX    TMP DP  RH WIND       PRES   REMARKS
DULUTH         CLOUDY    49  40  71 NW12      29.99R
6HR MIN TEMP:  43; 6HR MAX TEMP:  49;

INTRNTL FALLS  CLOUDY    46  36  68 N9        30.04R
6HR MIN TEMP:  42; 6HR MAX TEMP:  47;

ELY            CLOUDY    46  37  71 NW8       29.99S
CLOQUET        CLOUDY    48  37  66 NW10G16   30.00S
BRAINERD       SUNNY     54  40  59 N13       30.03S
6HR MIN TEMP:  40; 6HR MAX TEMP:  54;

HIBBING        CLOUDY    49  37  63 N10       30.01R
6HR MIN TEMP:  43; 6HR MAX TEMP:  50;

ALEXANDRIA     SUNNY     60  41  49 NW10G18   30.05F
6HR MIN TEMP:  42; 6HR MAX TEMP:  60;

SAINT CLOUD    SUNNY     62  41  46 N16       30.01F
6HR MIN TEMP:  44; 6HR MAX TEMP:  63;

MINNEAPOLIS    MOSUNNY   61  43  51 NW9       29.99F
6HR MIN TEMP:  47; 6HR MAX TEMP:  61;

$$

  *****  WEATHER ACROSS SOUTH DAKOTA  *****

CITY           SKY/WX    TMP DP  RH WIND       PRES   REMARKS
SIOUX FALLS    MOSUNNY   68  42  38 N14       30.07F
6HR MIN TEMP:  36; 6HR MAX TEMP:  68;

BROOKINGS      NOT AVBL
WATERTOWN      SUNNY     65  41  41 NW9       30.07F
6HR MIN TEMP:  34; 6HR MAX TEMP:  65;

HURON          SUNNY     68  38  33 VRB3      30.09F
6HR MIN TEMP:  31; 6HR MAX TEMP:  68;

SISSETON         N/A     65  41  41 N7        30.05F
ABERDEEN       SUNNY     66  38  35 SW6       30.08F
6HR MIN TEMP:  29; 6HR MAX TEMP:  67;

MITCHELL       SUNNY     68  39  34 SW5       30.10F
PIERRE         SUNNY     70  39  32 SE13      30.06F
6HR MIN TEMP:  33; 6HR MAX TEMP:  70;

MOBRIDGE       SUNNY     67  41  38 S14       30.04F
RAPID CITY     SUNNY     68  43  40 SE13      30.01F
6HR MIN TEMP:  40; 6HR MAX TEMP:  68;

$$

  *****  SOME WEATHER IN NEARBY STATES *****

CITY           SKY/WX    TMP DP  RH WIND       PRES   REMARKS
GLASGOW MT     SUNNY     61  42  49 SE10      29.85F
6HR MIN TEMP:  41; 6HR MAX TEMP:  61;

GREAT FALLS MT SUNNY     71  32  23 S14       29.85S
6HR MIN TEMP:  53; 6HR MAX TEMP:  71;

CHEYENNE WY    SUNNY     68  33  27 S14       30.17F
6HR MIN TEMP:  36; 6HR MAX TEMP:  69;

SCOTTSBLUFF NE SUNNY     70  47  43 SE9       30.09F
6HR MIN TEMP:  35; 6HR MAX TEMP:  70;

OMAHA NE       SUNNY     69  40  34 CALM      30.09F
6HR MIN TEMP:  44; 6HR MAX TEMP:  69;

DES MOINES IA  SUNNY     68  41  37 NW13      30.03F
6HR MIN TEMP:  47; 6HR MAX TEMP:  69;

DAVENPORT IA   SUNNY     65  42  43 NW14G24   29.94F
6HR MIN TEMP:  44; 6HR MAX TEMP:  65;

CHICAGO IL     MOSUNNY   63  46  54 VRB7      29.84F
6HR MIN TEMP:  46; 6HR MAX TEMP:  63;

EAU CLAIRE WI  PTSUNNY   58  40  51 N15       29.95F
6HR MIN TEMP:  42; 6HR MAX TEMP:  58;

LA CROSSE WI   MOSUNNY   62  43  49 NW12      29.93F
6HR MIN TEMP:  42; 6HR MAX TEMP:  64;

$$

  *****  SOME NATIONAL WEATHER *****

CITY           SKY/WX    TMP DP  RH WIND       PRES   REMARKS


USA.gov is the U.S. government's official web portal to all federal, state and local government web resources and services.